EDT,Max TemperatureF,Mean TemperatureF,Min TemperatureF,Max Dew PointF,MeanDew PointF,Min DewpointF,Max Humidity, Mean Humidity, Min Humidity, Max Sea Level PressureIn, Mean Sea Level PressureIn, Min Sea Level PressureIn, Max VisibilityMiles, Mean VisibilityMiles, Min VisibilityMiles, Max Wind SpeedMPH, Mean Wind SpeedMPH, Max Gust SpeedMPH,PrecipitationIn, CloudCover, Events, WindDirDegrees
2011-10-1,60,53,45,55,47,41,93,81,69,29.88,29.77,29.67,10,9,4,21,10,29,0.12,8,Rain,9
2011-10-2,64,55,46,55,50,42,93,86,78,29.92,29.86,29.81,10,9,3,15,6,21,0.27,7,Rain,12
2011-10-3,63,57,51,52,49,43,93,71,48,30.07,30.00,29.92,10,6,0,12,3,16,0.03,7,Fog-Rain,108
2011-10-4,66,59,51,55,52,48,96,77,58,30.07,30.03,29.99,10,9,2,13,6,16,0.06,7,Rain,341
2011-10-5,68,55,42,53,44,33,93,64,34,30.29,30.11,30.03,10,10,10,24,8,31,0.00,3,,338
2011-10-6,64,50,36,38,35,30,92,62,31,30.38,30.33,30.27,10,10,10,15,4,20,0.00,1,,302
2011-10-7,67,52,37,42,39,33,93,64,34,30.49,30.44,30.39,10,10,10,8,1,10,0.00,2,,182
2011-10-8,79,62,44,56,49,42,93,66,39,30.51,30.44,30.38,10,10,10,6,1,8,0.00,0,,193
2011-10-9,81,64,47,58,53,48,100,71,42,30.44,30.36,30.29,10,10,10,16,3,21,0.00,0,Fog,262
2011-10-10,83,66,49,59,55,49,100,73,45,30.30,30.22,30.14,10,10,10,14,3,20,0.00,2,Fog,321
2011-10-11,74,65,55,57,50,44,93,64,35,30.26,30.20,30.15,10,10,10,10,2,13,0.00,7,,349
2011-10-12,64,59,54,50,47,41,83,66,49,30.20,30.13,30.04,10,10,7,14,4,17,0.04,8,Rain,157
2011-10-13,67,60,52,61,55,51,100,89,78,30.02,29.87,29.72,10,7,2,8,2,10,0.33,8,Rain,320
2011-10-14,75,66,57,65,60,50,97,83,68,29.70,29.48,29.31,10,7,1,22,6,29,1.05,8,Rain-Thunderstorm,179
2011-10-15,63,57,51,50,44,39,71,57,43,29.70,29.52,29.39,10,10,2,29,12,38,0.10,6,Rain,212
2011-10-16,67,60,53,50,41,36,83,61,39,29.80,29.72,29.62,10,10,7,23,8,32,0.06,6,Rain,236
2011-10-17,65,55,44,49,40,34,86,61,36,29.74,29.67,29.61,10,10,8,23,6,31,T,4,Rain,226
2011-10-18,66,54,42,45,41,36,80,57,34,29.93,29.84,29.73,10,10,10,10,3,15,0.00,6,,163
2011-10-19,62,56,50,54,49,43,86,73,60,29.91,29.76,29.53,10,8,1,12,4,16,0.16,8,Rain,4
2011-10-20,70,61,51,60,51,39,87,68,48,29.62,29.42,29.32,10,10,5,28,9,40,0.04,6,Rain,180
2011-10-21,58,55,51,44,41,39,77,63,49,29.98,29.81,29.61,10,10,10,16,7,21,0.00,7,,223
2011-10-22,55,52,49,42,41,39,80,69,57,30.12,30.05,29.98,10,10,10,18,7,22,0.00,8,,275
2011-10-23,58,48,37,43,40,35,93,68,43,30.14,30.11,30.07,10,10,10,8,1,10,0.00,6,,34
2011-10-24,60,48,36,57,44,36,100,81,62,30.12,29.99,29.59,10,10,6,21,6,32,0.05,5,Fog-Rain,183
2011-10-25,55,47,38,45,38,34,100,75,50,30.05,30.00,29.96,10,10,10,28,10,35,0.00,3,Fog,294
2011-10-26,46,44,42,45,43,37,100,88,76,30.05,29.87,29.78,10,7,2,10,3,15,0.12,8,Rain,12
2011-10-27,42,37,32,41,35,32,100,95,89,29.99,29.82,29.75,10,4,1,16,9,23,0.68,8,Rain-Snow,358
2011-10-28,44,37,30,32,30,26,96,75,53,30.28,30.18,29.99,10,10,10,15,5,20,0.00,3,,302
2011-10-29,38,34,30,32,31,28,100,85,70,30.27,30.14,30.00,10,4,0,14,6,18,0.41,8,Fog-Snow,1
2011-10-30,49,40,30,32,29,24,100,70,39,30.32,30.12,29.98,10,8,1,17,7,23,0.02,4,Snow,309
2011-10-31,49,38,26,32,29,25,100,73,46,30.40,30.36,30.32,10,10,10,17,4,23,0.00,4,,173